KZR205 UACC-UAAA

Flight info

Callsign KZR205
Flight time 1h 22m
Altitude 37000
Route BANOS W333 ETEDA ETEDA1R
Aircraft A21N/M-SDE3FGHIRWY/LB1

Departure

Time 2026-05-04 18:25
Airport Nursultan Nazarbayev International Airport (UACC)

Arrival

Time 2026-05-04 19:48
Airport Almaty International Airport (UAAA)
Time Latitude Longitude Altitude Speed Heading
2026-05-04 17:50 51.02666 71.46223 1174 ft 0 kts 317°
2026-05-04 18:12 51.02665 71.46223 1174 ft 0 kts 317°
2026-05-04 18:12 51.02659 71.46233 1174 ft 2 kts 317°
2026-05-04 18:13 51.02648 71.46249 1174 ft 2 kts 317°
2026-05-04 18:13 51.02638 71.46263 1174 ft 2 kts 317°
2026-05-04 18:13 51.02623 71.46294 1174 ft 2 kts 287°
2026-05-04 18:14 51.02621 71.46317 1174 ft 2 kts 266°
2026-05-04 18:14 51.02622 71.46329 1174 ft 1 kts 255°
2026-05-04 18:14 51.02623 71.46335 1174 ft 0 kts 258°
2026-05-04 18:17 51.02622 71.46334 1174 ft 0 kts 258°
2026-05-04 18:18 51.02618 71.46300 1174 ft 5 kts 257°
2026-05-04 18:18 51.02586 71.46233 1174 ft 8 kts 224°
2026-05-04 18:18 51.02538 71.46165 1174 ft 9 kts 221°
2026-05-04 18:18 51.02518 71.46137 1174 ft 0 kts 221°
2026-05-04 18:19 51.02513 71.46130 1174 ft 2 kts 221°
2026-05-04 18:19 51.02475 71.46089 1174 ft 9 kts 195°
2026-05-04 18:19 51.02419 71.46139 1174 ft 10 kts 135°
2026-05-04 18:20 51.02364 71.46227 1174 ft 11 kts 127°
2026-05-04 18:20 51.02370 71.46337 1174 ft 11 kts 46°
2026-05-04 18:20 51.02430 71.46426 1174 ft 12 kts 43°
2026-05-04 18:20 51.02491 71.46522 1174 ft 12 kts 45°
2026-05-04 18:21 51.02554 71.46623 1174 ft 13 kts 44°
2026-05-04 18:21 51.02625 71.46733 1174 ft 15 kts 44°
2026-05-04 18:21 51.02706 71.46860 1174 ft 17 kts 43°
2026-05-04 18:21 51.02793 71.46997 1174 ft 18 kts 45°
2026-05-04 18:22 51.02885 71.47147 1174 ft 19 kts 46°
2026-05-04 18:22 51.02987 71.47298 1174 ft 20 kts 45°
2026-05-04 18:22 51.03089 71.47458 1174 ft 20 kts 45°
2026-05-04 18:22 51.03194 71.47617 1174 ft 21 kts 42°
2026-05-04 18:23 51.03303 71.47784 1174 ft 21 kts 45°
2026-05-04 18:23 51.03402 71.47942 1174 ft 12 kts 45°
2026-05-04 18:23 51.03430 71.48070 1174 ft 13 kts 88°
2026-05-04 18:23 51.03428 71.48216 1174 ft 12 kts 97°
2026-05-04 18:24 51.03397 71.48322 1174 ft 8 kts 147°
2026-05-04 18:24 51.03338 71.48306 1174 ft 9 kts 222°
2026-05-04 18:24 51.03307 71.48259 1174 ft 6 kts 224°
2026-05-04 18:24 51.03267 71.48196 1174 ft 14 kts 224°
2026-05-04 18:25 51.03033 71.47834 1174 ft 83 kts 224°
2026-05-04 18:25 51.02464 71.46938 1175 ft 146 kts 224°
2026-05-04 18:25 51.01654 71.45662 1453 ft 172 kts 223°
2026-05-04 18:25 51.00783 71.44377 2095 ft 175 kts 220°
2026-05-04 18:26 50.99888 71.43094 2819 ft 174 kts 219°
2026-05-04 18:26 50.98915 71.42061 3309 ft 173 kts 195°
2026-05-04 18:26 50.97706 71.42309 3557 ft 189 kts 149°
2026-05-04 18:26 50.96905 71.44051 3866 ft 209 kts 111°
2026-05-04 18:27 50.96676 71.46405 4129 ft 231 kts 94°
2026-05-04 18:27 50.96531 71.49038 4374 ft 248 kts 111°
2026-05-04 18:27 50.95567 71.51339 4727 ft 259 kts 138°
2026-05-04 18:27 50.94184 71.53263 5230 ft 270 kts 142°
2026-05-04 18:28 50.92738 71.55190 5894 ft 275 kts 142°
2026-05-04 18:28 50.91270 71.57184 6593 ft 280 kts 141°
2026-05-04 18:28 50.89815 71.59256 7268 ft 285 kts 139°
2026-05-04 18:28 50.88347 71.61427 7987 ft 289 kts 139°
2026-05-04 18:29 50.86871 71.63639 8693 ft 293 kts 138°
2026-05-04 18:29 50.85414 71.65834 9378 ft 296 kts 139°
2026-05-04 18:29 50.83916 71.68096 10066 ft 299 kts 139°
2026-05-04 18:29 50.82408 71.70372 10605 ft 307 kts 139°
2026-05-04 18:30 50.79168 71.75253 11433 ft 330 kts 139°
2026-05-04 18:30 50.77520 71.77734 12060 ft 333 kts 139°
2026-05-04 18:30 50.75816 71.80301 12682 ft 337 kts 139°
2026-05-04 18:31 50.74118 71.82854 13261 ft 341 kts 139°
2026-05-04 18:31 50.72411 71.85418 13827 ft 345 kts 139°
2026-05-04 18:31 50.70649 71.88059 14409 ft 349 kts 139°
2026-05-04 18:31 50.68899 71.90684 14981 ft 352 kts 139°
2026-05-04 18:32 50.67111 71.93359 15545 ft 355 kts 139°
2026-05-04 18:32 50.65317 71.96041 16087 ft 359 kts 139°
2026-05-04 18:32 50.63515 71.98731 16628 ft 362 kts 139°
2026-05-04 18:32 50.61666 72.01489 17163 ft 365 kts 139°
2026-05-04 18:33 50.59818 72.04240 17674 ft 368 kts 139°
2026-05-04 18:33 50.57980 72.06976 18173 ft 371 kts 139°
2026-05-04 18:33 50.56084 72.09795 18682 ft 374 kts 139°
2026-05-04 18:33 50.54188 72.12609 19190 ft 376 kts 139°
2026-05-04 18:34 50.52292 72.15421 19685 ft 379 kts 139°
2026-05-04 18:34 50.50380 72.18254 20172 ft 381 kts 139°
2026-05-04 18:34 50.48444 72.21117 20656 ft 383 kts 139°
2026-05-04 18:34 50.46518 72.23963 21124 ft 385 kts 138°
2026-05-04 18:35 50.44545 72.26874 21599 ft 387 kts 138°
2026-05-04 18:35 50.42584 72.29764 22058 ft 389 kts 138°
2026-05-04 18:35 50.40610 72.32672 22510 ft 391 kts 138°
2026-05-04 18:35 50.38635 72.35577 22946 ft 393 kts 138°
2026-05-04 18:36 50.36653 72.38489 23357 ft 396 kts 138°
2026-05-04 18:36 50.34627 72.41462 23756 ft 398 kts 138°
2026-05-04 18:36 50.32605 72.44423 24145 ft 401 kts 138°
2026-05-04 18:36 50.30564 72.47411 24525 ft 404 kts 138°
2026-05-04 18:37 50.28508 72.50416 24891 ft 407 kts 138°
2026-05-04 18:37 50.26422 72.53461 25240 ft 410 kts 138°
2026-05-04 18:37 50.24341 72.56495 25590 ft 412 kts 138°
2026-05-04 18:37 50.22216 72.59586 25946 ft 415 kts 138°
2026-05-04 18:38 50.20128 72.62624 26269 ft 418 kts 138°
2026-05-04 18:38 50.17998 72.65723 26582 ft 421 kts 139°
2026-05-04 18:38 50.15839 72.68902 26913 ft 424 kts 138°
2026-05-04 18:38 50.13712 72.72041 27245 ft 426 kts 138°
2026-05-04 18:39 50.11552 72.75225 27576 ft 427 kts 138°
2026-05-04 18:39 50.09392 72.78405 27904 ft 429 kts 138°
2026-05-04 18:39 50.07225 72.81587 28208 ft 432 kts 138°
2026-05-04 18:39 50.05019 72.84820 28503 ft 434 kts 138°
2026-05-04 18:40 50.02839 72.88011 28808 ft 436 kts 138°
2026-05-04 18:40 50.00625 72.91247 29106 ft 439 kts 138°
2026-05-04 18:40 49.98387 72.94514 29385 ft 441 kts 138°
2026-05-04 18:40 49.96139 72.97794 29667 ft 444 kts 138°
2026-05-04 18:41 49.93884 73.01077 29938 ft 446 kts 138°
2026-05-04 18:41 49.91605 73.04390 30201 ft 449 kts 138°
2026-05-04 18:41 49.89328 73.07697 30469 ft 451 kts 138°
2026-05-04 18:41 49.87021 73.11039 30722 ft 454 kts 137°
2026-05-04 18:42 49.84737 73.14343 31008 ft 455 kts 138°
2026-05-04 18:42 49.82419 73.17696 31268 ft 457 kts 137°
2026-05-04 18:42 49.80091 73.21056 31536 ft 459 kts 137°
2026-05-04 18:42 49.77745 73.24437 31802 ft 460 kts 137°
2026-05-04 18:43 49.75403 73.27807 32041 ft 462 kts 138°
2026-05-04 18:43 49.72980 73.31050 32279 ft 464 kts 142°
2026-05-04 18:43 49.70404 73.34077 32512 ft 465 kts 146°
2026-05-04 18:43 49.67711 73.36820 32752 ft 466 kts 150°
2026-05-04 18:44 49.64908 73.39279 32971 ft 467 kts 154°
2026-05-04 18:44 49.62939 73.40786 33138 ft 467 kts 156°
2026-05-04 18:44 49.58967 73.43351 33534 ft 465 kts 160°
2026-05-04 18:44 49.55951 73.45149 33857 ft 464 kts 160°
2026-05-04 18:45 49.52944 73.46940 34159 ft 464 kts 160°
2026-05-04 18:45 49.49913 73.48751 34458 ft 463 kts 160°
2026-05-04 18:45 49.46930 73.50536 34711 ft 463 kts 160°
2026-05-04 18:45 49.43916 73.52342 34963 ft 463 kts 160°
2026-05-04 18:46 49.40955 73.54118 35216 ft 462 kts 160°
2026-05-04 18:46 49.37949 73.55917 35470 ft 462 kts 160°
2026-05-04 18:46 49.34964 73.57703 35715 ft 461 kts 160°
2026-05-04 18:46 49.31995 73.59476 35945 ft 460 kts 160°
2026-05-04 18:47 49.28981 73.61275 36169 ft 460 kts 160°
2026-05-04 18:47 49.26028 73.63035 36379 ft 459 kts 160°
2026-05-04 18:47 49.23051 73.64806 36596 ft 459 kts 160°
2026-05-04 18:47 49.20061 73.66582 36858 ft 458 kts 161°
2026-05-04 18:48 49.17092 73.68347 37106 ft 458 kts 161°
2026-05-04 18:48 49.11143 73.71870 37199 ft 459 kts 161°
2026-05-04 18:49 49.05207 73.75376 37201 ft 459 kts 161°
2026-05-04 18:49 48.99276 73.78871 37203 ft 459 kts 161°
2026-05-04 18:50 48.93298 73.82374 37208 ft 459 kts 161°
2026-05-04 18:50 48.87340 73.85847 37212 ft 460 kts 161°
2026-05-04 18:51 48.81354 73.89330 37213 ft 461 kts 161°
2026-05-04 18:51 48.75411 73.92780 37211 ft 461 kts 161°
2026-05-04 18:52 48.69429 73.96244 37210 ft 459 kts 161°
2026-05-04 18:52 48.63438 73.99703 37205 ft 459 kts 161°
2026-05-04 18:53 48.57496 74.03123 37209 ft 460 kts 161°
2026-05-04 18:53 48.51534 74.06548 37213 ft 460 kts 161°
2026-05-04 18:54 48.45549 74.09978 37216 ft 460 kts 160°
2026-05-04 18:54 48.39549 74.13408 37212 ft 460 kts 160°
2026-05-04 18:55 48.33535 74.16836 37212 ft 459 kts 161°
2026-05-04 18:55 48.24574 74.21928 37208 ft 459 kts 160°
2026-05-04 18:56 48.18594 74.25314 37209 ft 459 kts 160°
2026-05-04 18:56 48.12598 74.28704 37206 ft 459 kts 160°
2026-05-04 18:57 48.06670 74.32091 37203 ft 459 kts 160°
2026-05-04 18:57 48.00687 74.35513 37201 ft 458 kts 160°
2026-05-04 18:58 47.94742 74.38901 37198 ft 458 kts 160°
2026-05-04 18:58 47.88807 74.42270 37193 ft 457 kts 160°
2026-05-04 18:59 47.82857 74.45639 37193 ft 457 kts 160°
2026-05-04 18:59 47.76921 74.48993 37194 ft 456 kts 160°
2026-05-04 19:00 47.70992 74.52335 37196 ft 456 kts 160°
2026-05-04 19:00 47.65054 74.55673 37194 ft 455 kts 160°
2026-05-04 19:01 47.59134 74.58991 37196 ft 454 kts 160°
2026-05-04 19:01 47.53249 74.62283 37192 ft 454 kts 160°
2026-05-04 19:02 47.47352 74.65602 37190 ft 454 kts 160°
2026-05-04 19:02 47.41459 74.68916 37193 ft 453 kts 160°
2026-05-04 19:03 47.35578 74.72211 37190 ft 452 kts 160°
2026-05-04 19:03 47.29786 74.75448 37189 ft 451 kts 160°
2026-05-04 19:04 47.23948 74.78704 37187 ft 451 kts 160°
2026-05-04 19:04 47.18066 74.81975 37185 ft 451 kts 160°
2026-05-04 19:05 47.12183 74.85239 37187 ft 450 kts 160°
2026-05-04 19:05 47.06314 74.88488 37184 ft 450 kts 160°
2026-05-04 19:06 47.00429 74.91734 37183 ft 451 kts 160°
2026-05-04 19:06 46.94561 74.94967 37181 ft 451 kts 160°
2026-05-04 19:07 46.88708 74.98197 37181 ft 450 kts 159°
2026-05-04 19:07 46.82966 75.01798 37181 ft 449 kts 157°
2026-05-04 19:08 46.77242 75.05437 37180 ft 450 kts 157°
2026-05-04 19:08 46.71508 75.09069 37167 ft 450 kts 157°
2026-05-04 19:09 46.65772 75.12694 37167 ft 451 kts 157°
2026-05-04 19:09 46.60008 75.16328 37167 ft 450 kts 157°
2026-05-04 19:10 46.54274 75.19931 37165 ft 450 kts 157°
2026-05-04 19:10 46.48526 75.23537 37159 ft 450 kts 157°
2026-05-04 19:11 46.42764 75.27143 37161 ft 450 kts 157°
2026-05-04 19:11 46.37023 75.30729 37162 ft 449 kts 157°
2026-05-04 19:12 46.28400 75.36098 37155 ft 449 kts 157°
2026-05-04 19:13 46.22640 75.39673 37148 ft 449 kts 158°
2026-05-04 19:13 46.16919 75.43240 37148 ft 449 kts 157°
2026-05-04 19:14 46.11170 75.46829 37150 ft 448 kts 157°
2026-05-04 19:14 46.05439 75.50397 37144 ft 449 kts 157°
2026-05-04 19:15 45.99740 75.53934 37144 ft 448 kts 157°
2026-05-04 19:15 45.94009 75.57484 37143 ft 448 kts 157°
2026-05-04 19:16 45.88258 75.61038 37143 ft 448 kts 157°
2026-05-04 19:16 45.82523 75.64574 37144 ft 448 kts 157°
2026-05-04 19:17 45.76793 75.68096 37142 ft 448 kts 158°
2026-05-04 19:17 45.71042 75.71625 37141 ft 448 kts 158°
2026-05-04 19:18 45.65336 75.75122 37140 ft 448 kts 158°
2026-05-04 19:18 45.59595 75.78635 37140 ft 448 kts 158°
2026-05-04 19:19 45.53886 75.82119 37140 ft 448 kts 158°
2026-05-04 19:19 45.48163 75.85603 37136 ft 448 kts 158°
2026-05-04 19:20 45.42428 75.89085 37140 ft 447 kts 158°
2026-05-04 19:20 45.36716 75.92548 37137 ft 447 kts 158°
2026-05-04 19:21 45.30989 75.96010 37139 ft 447 kts 159°
2026-05-04 19:21 45.25247 75.99474 37137 ft 447 kts 159°
2026-05-04 19:22 45.19556 76.02899 37135 ft 447 kts 159°
2026-05-04 19:22 45.13821 76.06343 37134 ft 447 kts 159°
2026-05-04 19:23 45.08096 76.09774 37137 ft 447 kts 159°
2026-05-04 19:23 45.05210 76.11501 36927 ft 447 kts 159°
2026-05-04 19:23 45.02396 76.13183 36636 ft 444 kts 159°
2026-05-04 19:23 44.99530 76.14896 36340 ft 442 kts 159°
2026-05-04 19:24 44.96709 76.16579 36029 ft 440 kts 159°
2026-05-04 19:24 44.94002 76.18192 35568 ft 440 kts 159°
2026-05-04 19:24 44.92125 76.19309 35168 ft 443 kts 159°
2026-05-04 19:24 44.88440 76.21499 34285 ft 448 kts 159°
2026-05-04 19:25 44.85570 76.23202 33507 ft 450 kts 159°
2026-05-04 19:25 44.82653 76.24932 32814 ft 450 kts 159°
2026-05-04 19:25 44.79794 76.26629 32126 ft 451 kts 159°
2026-05-04 19:25 44.76903 76.28341 31611 ft 446 kts 159°
2026-05-04 19:26 44.74050 76.30029 31171 ft 440 kts 159°
2026-05-04 19:26 44.71275 76.31669 30728 ft 435 kts 160°
2026-05-04 19:26 44.68494 76.33311 30272 ft 431 kts 160°
2026-05-04 19:26 44.65726 76.34943 29828 ft 427 kts 160°
2026-05-04 19:27 44.63031 76.36526 29398 ft 423 kts 159°
2026-05-04 19:27 44.60340 76.38108 28971 ft 419 kts 159°
2026-05-04 19:27 44.59793 76.38429 28881 ft 418 kts 159°
2026-05-04 19:27 44.57337 76.39871 28473 ft 415 kts 159°
2026-05-04 19:28 44.54685 76.41427 28026 ft 412 kts 159°
2026-05-04 19:28 44.52019 76.42989 27568 ft 409 kts 159°
2026-05-04 19:28 44.49422 76.44511 27131 ft 407 kts 159°
2026-05-04 19:28 44.46816 76.46037 26681 ft 404 kts 159°
2026-05-04 19:29 44.44212 76.47559 26236 ft 401 kts 159°
2026-05-04 19:29 44.41657 76.49051 25797 ft 399 kts 158°
2026-05-04 19:29 44.39116 76.50534 25358 ft 396 kts 158°
2026-05-04 19:29 44.36575 76.51979 24902 ft 394 kts 162°
2026-05-04 19:30 44.33915 76.52653 24427 ft 388 kts 181°
2026-05-04 19:30 44.31265 76.52128 23980 ft 381 kts 199°
2026-05-04 19:30 44.28804 76.50841 23549 ft 377 kts 204°
2026-05-04 19:30 44.26393 76.49464 23124 ft 375 kts 204°
2026-05-04 19:31 44.23994 76.48109 22719 ft 373 kts 203°
2026-05-04 19:31 44.21567 76.46768 22297 ft 371 kts 202°
2026-05-04 19:31 44.19083 76.45895 21831 ft 372 kts 183°
2026-05-04 19:31 44.16536 76.46390 21417 ft 370 kts 160°
2026-05-04 19:32 44.14334 76.48121 21002 ft 367 kts 138°
2026-05-04 19:32 44.12709 76.50821 20603 ft 363 kts 121°
2026-05-04 19:32 44.11402 76.53805 20203 ft 361 kts 120°
2026-05-04 19:32 44.10102 76.56787 19810 ft 359 kts 120°
2026-05-04 19:33 44.08789 76.59754 19407 ft 357 kts 120°
2026-05-04 19:33 44.07528 76.62580 19020 ft 355 kts 120°
2026-05-04 19:33 44.06234 76.65457 18621 ft 353 kts 121°
2026-05-04 19:33 44.04928 76.68346 18216 ft 351 kts 121°
2026-05-04 19:34 44.03632 76.71202 17808 ft 349 kts 121°
2026-05-04 19:34 44.02337 76.74053 17443 ft 346 kts 121°
2026-05-04 19:34 44.01067 76.76845 17048 ft 345 kts 121°
2026-05-04 19:34 43.99783 76.79665 16609 ft 343 kts 121°
2026-05-04 19:35 43.98523 76.82430 16218 ft 341 kts 121°
2026-05-04 19:35 43.97252 76.85215 15817 ft 340 kts 121°
2026-05-04 19:35 43.95988 76.87982 15416 ft 338 kts 121°
2026-05-04 19:35 43.94730 76.90730 14984 ft 336 kts 121°
2026-05-04 19:36 43.93494 76.93430 14616 ft 334 kts 121°
2026-05-04 19:36 43.92207 76.96154 14173 ft 334 kts 125°
2026-05-04 19:36 43.90688 76.98560 13779 ft 333 kts 135°
2026-05-04 19:36 43.88909 77.00622 13357 ft 332 kts 141°
2026-05-04 19:37 43.87075 77.02516 12974 ft 330 kts 142°
2026-05-04 19:37 43.85220 77.04399 12554 ft 328 kts 142°
2026-05-04 19:37 43.83388 77.06263 12172 ft 326 kts 142°
2026-05-04 19:37 43.81560 77.08133 11787 ft 325 kts 142°
2026-05-04 19:38 43.79756 77.09984 11357 ft 324 kts 142°
2026-05-04 19:38 43.77940 77.11849 10953 ft 321 kts 142°
2026-05-04 19:38 43.76145 77.13694 10574 ft 319 kts 142°
2026-05-04 19:38 43.74362 77.15527 10187 ft 317 kts 142°
2026-05-04 19:39 43.72604 77.17329 10090 ft 310 kts 142°
2026-05-04 19:39 43.70918 77.19057 10105 ft 297 kts 141°
2026-05-04 19:39 43.69265 77.20750 9739 ft 296 kts 141°
2026-05-04 19:39 43.67593 77.22463 9357 ft 295 kts 141°
2026-05-04 19:40 43.65958 77.24136 8987 ft 294 kts 141°
2026-05-04 19:40 43.64324 77.25806 8640 ft 292 kts 141°
2026-05-04 19:40 43.62684 77.27482 8270 ft 290 kts 141°
2026-05-04 19:40 43.61069 77.29132 7937 ft 288 kts 141°
2026-05-04 19:41 43.59485 77.30740 7851 ft 274 kts 143°
2026-05-04 19:41 43.57928 77.32224 7570 ft 270 kts 143°
2026-05-04 19:41 43.56388 77.33677 7251 ft 269 kts 143°
2026-05-04 19:41 43.54864 77.35113 6927 ft 267 kts 144°
2026-05-04 19:42 43.53157 77.36172 6576 ft 268 kts 172°
2026-05-04 19:42 43.51351 77.35784 6250 ft 264 kts 208°
2026-05-04 19:42 43.49974 77.34160 5976 ft 257 kts 232°
2026-05-04 19:42 43.48984 77.32125 5733 ft 251 kts 240°
2026-05-04 19:43 43.48166 77.30252 5522 ft 237 kts 239°
2026-05-04 19:43 43.47302 77.28352 5436 ft 227 kts 238°
2026-05-04 19:43 43.46468 77.26607 5480 ft 206 kts 237°
2026-05-04 19:43 43.45695 77.25034 5339 ft 188 kts 237°
2026-05-04 19:44 43.44984 77.23598 5140 ft 175 kts 236°
2026-05-04 19:44 43.44304 77.22229 4905 ft 171 kts 236°
2026-05-04 19:44 43.43639 77.20895 4688 ft 164 kts 236°
2026-05-04 19:44 43.43019 77.19655 4461 ft 155 kts 236°
2026-05-04 19:45 43.42403 77.18418 4275 ft 155 kts 236°
2026-05-04 19:45 43.41793 77.17196 4084 ft 154 kts 235°
2026-05-04 19:45 43.41195 77.15994 3891 ft 153 kts 235°
2026-05-04 19:45 43.40591 77.14780 3699 ft 153 kts 235°
2026-05-04 19:46 43.39997 77.13585 3508 ft 151 kts 235°
2026-05-04 19:46 43.39908 77.13406 3478 ft 151 kts 235°
2026-05-04 19:46 43.39312 77.12207 3277 ft 150 kts 235°
2026-05-04 19:46 43.38720 77.11015 3079 ft 150 kts 234°
2026-05-04 19:47 43.38144 77.09853 2882 ft 148 kts 234°
2026-05-04 19:47 43.37562 77.08674 2686 ft 146 kts 235°
2026-05-04 19:47 43.36993 77.07512 2485 ft 145 kts 234°
2026-05-04 19:47 43.36422 77.06382 2324 ft 144 kts 235°
2026-05-04 19:48 43.35881 77.05289 2234 ft 129 kts 235°
2026-05-04 19:48 43.35460 77.04444 2233 ft 81 kts 234°
2026-05-04 19:48 43.35238 77.03994 2229 ft 31 kts 234°
2026-05-04 19:48 43.35133 77.03787 2228 ft 25 kts 235°
2026-05-04 19:49 43.35035 77.03589 2225 ft 25 kts 236°
2026-05-04 19:49 43.34931 77.03382 2223 ft 26 kts 234°
2026-05-04 19:49 43.34824 77.03177 2224 ft 25 kts 236°
2026-05-04 19:49 43.34728 77.02976 2225 ft 25 kts 237°
2026-05-04 19:50 43.34617 77.02749 2226 ft 31 kts 235°
2026-05-04 19:50 43.34529 77.02560 2227 ft 20 kts 238°
2026-05-04 19:50 43.34489 77.02422 2227 ft 15 kts 275°
2026-05-04 19:50 43.34496 77.02266 2227 ft 17 kts 274°
2026-05-04 19:51 43.34504 77.02080 2225 ft 21 kts 274°
2026-05-04 19:51 43.34515 77.01854 2222 ft 24 kts 272°
2026-05-04 19:51 43.34525 77.01627 2222 ft 16 kts 276°
2026-05-04 19:51 43.34536 77.01514 2224 ft 8 kts 295°
2026-05-04 19:52 43.34586 77.01472 2223 ft 4 kts 345°
2026-05-04 19:52 43.34602 77.01466 2222 ft 1 kts 345°
2026-05-04 19:52 43.34617 77.01450 2222 ft 4 kts 306°
2026-05-04 19:52 43.34629 77.01406 2223 ft 4 kts 276°
2026-05-04 19:53 43.34631 77.01389 2223 ft 0 kts 275°
2026-05-04 19:53 43.34632 77.01376 2223 ft 3 kts 277°
2026-05-04 19:53 43.34634 77.01354 2223 ft 0 kts 276°